EW9273 Weather Reports


Display with metric or nautical units.
time (UTC)temp
F
wind
direction
speed
MPH
gust
MPH
rain 1hr
in
rain 24hr
in
rain mn
in
humidity
%
barometer
mb
20260508130557 63 38 1.0 4.0 0.00 0.02 0.00 77 1011.4
20260508130057 63 339 1.0 4.0 0.00 0.02 0.00 77 1011.4
20260508125559 63 32 1.0 5.0 0.00 0.02 0.00 77 1011.4
20260508125056 63 29 3.0 5.0 0.00 0.02 0.00 77 1011.4
20260508124554 63 70 2.0 5.0 0.00 0.02 0.00 77 1011.4
20260508124054 63 23 0.0 4.0 0.00 0.02 0.00 77 1011.5
20260508123553 63 82 2.0 3.0 0.00 0.02 0.00 77 1011.5
20260508123053 63 24 1.0 3.0 0.00 0.02 0.00 77 1011.5
20260508122552 63 338 1.0 3.0 0.00 0.02 0.00 77 1011.6
20260508122053 63 333 1.0 3.0 0.00 0.02 0.00 77 1011.8
20260508121552 62 330 1.0 4.0 0.00 0.02 0.00 77 1011.8
20260508121051 62 330 1.0 4.0 0.00 0.02 0.00 77 1011.7
20260508120551 62 355 1.0 4.0 0.00 0.02 0.00 77 1011.6
20260508120100 62 338 1.0 5.0 0.00 0.02 0.00 76 1011.6
20260508115555 62 35 1.0 5.0 0.00 0.02 0.00 76 1011.7
20260508115054 62 53 2.0 6.0 0.00 0.02 0.00 76 1011.8
20260508114559 62 335 2.0 8.0 0.00 0.02 0.00 76 1011.9
20260508114049 62 333 3.0 8.0 0.00 0.02 0.00 76 1011.7
20260508113549 62 333 2.0 6.0 0.00 0.02 0.00 76 1011.5
20260508113050 62 36 2.0 9.0 0.00 0.02 0.00 76 1011.4
20260508112549 62 5 3.0 10.0 0.00 0.02 0.00 76 1011.3
20260508112048 62 26 5.0 10.0 0.00 0.02 0.00 75 1010.9
20260508111547 62 61 5.0 9.0 0.00 0.02 0.00 75 1011.1
20260508111047 63 36 5.0 9.0 0.00 0.02 0.00 74 1011.5
20260508110545 63 19 3.0 8.0 0.00 0.02 0.00 74 1011.7
20260508110048 63 14 2.0 9.0 0.00 0.02 0.00 74 1011.9
20260508105545 63 338 2.0 9.0 0.00 0.02 0.00 74 1012.2
20260508105045 63 328 2.0 6.0 0.00 0.02 0.00 73 1012.3
20260508104544 63 340 1.0 3.0 0.00 0.02 0.00 73 1012.2
20260508104044 63 340 1.0 3.0 0.00 0.02 0.00 73 1012.0
20260508103544 63 36 1.0 5.0 0.00 0.02 0.00 73 1011.7
20260508103048 63 342 1.0 4.0 0.00 0.02 0.00 73 1011.6
20260508102543 63 344 2.0 4.0 0.00 0.02 0.00 73 1011.6
20260508102043 63 338 1.0 5.0 0.00 0.02 0.00 72 1011.3
20260508101543 63 50 2.0 5.0 0.00 0.02 0.00 72 1011.4
20260508101043 63 86 2.0 9.0 0.00 0.02 0.00 72 1011.4
20260508100545 63 48 2.0 9.0 0.00 0.02 0.00 72 1011.4
20260508100059 63 65 3.0 9.0 0.00 0.02 0.00 72 1011.0
20260508095542 63 41 1.0 9.0 0.00 0.02 0.00 72 1010.7
20260508095041 63 33 2.0 10.0 0.00 0.02 0.00 71 1010.8
20260508094543 63 40 4.0 10.0 0.00 0.02 0.00 71 1010.7
20260508094039 63 23 3.0 8.0 0.00 0.02 0.00 71 1011.0
20260508093538 63 63 2.0 6.0 0.00 0.02 0.00 71 1011.7
20260508093039 63 11 2.0 8.0 0.00 0.02 0.00 71 1011.8
20260508092541 63 32 2.0 8.0 0.00 0.02 0.00 71 1011.8
20260508092037 64 61 1.0 5.0 0.00 0.02 0.00 70 1011.9
20260508091552 64 37 2.0 6.0 0.00 0.02 0.00 70 1011.8
20260508091037 64 80 2.0 6.0 0.00 0.02 0.00 70 1011.7
20260508090537 64 32 2.0 6.0 0.00 0.02 0.00 70 1011.7
20260508090042 64 24 2.0 6.0 0.00 0.02 0.00 70 1011.8
20260508085536 64 15 2.0 6.0 0.00 0.02 0.00 70 1012.1
20260508085038 64 13 1.0 4.0 0.00 0.02 0.00 70 1012.1
20260508084536 64 30 1.0 6.0 0.00 0.02 0.00 70 1012.0
20260508084039 64 326 2.0 9.0 0.00 0.02 0.00 70 1012.0
20260508083538 64 355 2.0 5.0 0.00 0.02 0.00 70 1011.8
20260508083035 64 360 2.0 5.0 0.00 0.02 0.00 69 1011.3
20260508082535 64 37 1.0 3.0 0.00 0.02 0.00 69 1011.1
20260508082035 64 37 1.0 5.0 0.00 0.02 0.00 69 1011.4
20260508081547 64 43 2.0 6.0 0.00 0.02 0.00 69 1011.5
20260508081035 64 49 2.0 6.0 0.00 0.02 0.00 69 1011.6
20260508080536 64 342 2.0 5.0 0.00 0.02 0.00 69 1011.9
20260508080034 64 351 1.0 5.0 0.00 0.02 0.00 69 1011.9
20260508075535 64 360 2.0 5.0 0.00 0.02 0.00 69 1012.0
20260508075034 64 355 1.0 6.0 0.00 0.02 0.00 69 1012.0
20260508074535 64 40 3.0 5.0 0.00 0.02 0.00 69 1011.9
20260508074032 64 32 2.0 6.0 0.00 0.02 0.00 69 1012.2
20260508073532 64 360 2.0 6.0 0.00 0.02 0.00 69 1012.5
20260508073036 64 342 1.0 5.0 0.00 0.02 0.00 69 1012.6
20260508072531 64 340 2.0 4.0 0.00 0.02 0.00 69 1012.8
20260508072031 64 46 1.0 4.0 0.00 0.02 0.00 69 1012.4
20260508071536 64 344 1.0 5.0 0.00 0.02 0.00 69 1012.6
20260508071031 64 10 2.0 6.0 0.00 0.02 0.00 69 1012.5
20260508070533 64 34 3.0 8.0 0.00 0.02 0.00 69 1012.2
20260508070031 64 5 2.0 8.0 0.00 0.02 0.00 69 1012.5
20260508065530 64 5 3.0 8.0 0.00 0.02 0.00 69 1012.6
20260508065030 64 335 2.0 4.0 0.00 0.02 0.00 69 1012.9
20260508064536 64 347 0.0 5.0 0.00 0.02 0.00 69 1012.6
20260508064030 64 347 2.0 8.0 0.00 0.02 0.00 69 1012.7
20260508063530 64 25 1.0 10.0 0.00 0.02 0.00 69 1012.4
20260508063030 64 82 4.0 9.0 0.00 0.02 0.00 69 1011.8
20260508062529 64 323 2.0 10.0 0.00 0.02 0.00 69 1012.2
20260508062029 64 319 2.0 11.0 0.00 0.02 0.00 69 1011.7
20260508061530 64 80 4.0 12.0 0.00 0.02 0.00 69 1011.2
20260508061028 64 59 5.0 12.0 0.00 0.02 0.00 69 1011.4
20260508060527 64 59 5.0 9.0 0.00 0.02 0.00 68 1011.9
20260508060028 64 48 3.0 8.0 0.00 0.02 0.00 68 1012.3
20260508055524 64 46 3.0 6.0 0.00 0.02 0.00 68 1012.5
20260508055023 64 66 2.0 4.0 0.00 0.02 0.00 68 1012.9
20260508054557 64 46 1.0 3.0 0.00 0.02 0.00 68 1013.4
20260508054024 64 326 0.0 4.0 0.00 0.02 0.00 68 1013.8
20260508053521 64 326 1.0 4.0 0.00 0.02 0.00 68 1013.7
20260508053028 64 5 1.0 4.0 0.00 0.02 0.00 68 1013.4
20260508052521 64 5 1.0 4.0 0.00 0.02 0.00 68 1013.8
20260508052020 64 331 0.0 5.0 0.00 0.02 0.00 68 1013.7
20260508051520 64 316 2.0 5.0 0.00 0.02 0.00 68 1013.6
20260508051019 64 343 1.0 8.0 0.00 0.02 0.00 68 1013.4
20260508050517 64 294 3.0 8.0 0.00 0.02 0.00 69 1014.0
20260508050017 64 288 2.0 6.0 0.00 0.02 0.00 69 1014.1
20260508045517 64 321 2.0 6.0 0.00 0.02 0.02 69 1012.9
20260508045017 63 61 3.0 8.0 0.00 0.02 0.02 69 1012.1
20260508044516 64 71 3.0 14.0 0.00 0.02 0.02 68 1011.9
20260508044017 64 55 5.0 14.0 0.00 0.02 0.02 68 1011.7
20260508043516 64 74 4.0 10.0 0.00 0.02 0.02 68 1011.6
20260508043021 64 89 6.0 10.0 0.00 0.02 0.02 68 1011.3
20260508042519 64 67 5.0 10.0 0.00 0.02 0.02 67 1011.4
20260508042015 64 28 5.0 10.0 0.00 0.02 0.02 67 1011.7
20260508041515 64 57 3.0 9.0 0.00 0.02 0.02 67 1011.9
20260508041015 65 66 4.0 9.0 0.00 0.02 0.02 66 1012.2
20260508040514 65 51 4.0 7.0 0.00 0.02 0.02 66 1012.3
20260508040014 65 338 2.0 11.0 0.00 0.02 0.02 66 1012.4
20260508035514 65 77 3.0 11.0 0.00 0.02 0.02 66 1012.3
20260508035014 65 19 4.0 10.0 0.00 0.02 0.02 66 1012.3
20260508034518 65 10 4.0 10.0 0.00 0.02 0.02 65 1012.4
20260508034016 65 35 2.0 6.0 0.00 0.02 0.02 65 1012.8
20260508033513 66 323 2.0 6.0 0.00 0.02 0.02 65 1012.9
20260508033022 66 63 3.0 9.0 0.00 0.02 0.02 65 1013.0
20260508032514 65 22 4.0 10.0 0.00 0.02 0.02 65 1013.1
20260508032012 65 17 2.0 10.0 0.00 0.02 0.02 66 1013.1
20260508031514 65 329 3.0 9.0 0.00 0.02 0.02 66 1013.3
20260508031012 65 350 3.0 8.0 0.00 0.02 0.02 66 1013.3
20260508030512 65 315 2.0 6.0 0.00 0.02 0.02 67 1013.3
20260508030011 65 29 2.0 6.0 0.00 0.02 0.02 67 1013.1
20260508025511 65 355 2.0 5.0 0.00 0.02 0.02 68 1013.2
20260508025011 65 355 1.0 4.0 0.00 0.02 0.02 67 1013.1
20260508024511 65 355 1.0 4.0 0.00 0.02 0.02 67 1012.9
20260508024011 65 355 1.0 4.0 0.00 0.02 0.02 67 1012.7
20260508023511 65 346 2.0 4.0 0.00 0.02 0.02 67 1012.7
20260508023011 65 42 1.0 3.0 0.00 0.02 0.02 67 1012.9
20260508022511 65 42 0.0 3.0 0.00 0.02 0.02 67 1012.5
20260508022011 65 42 1.0 4.0 0.00 0.02 0.02 66 1012.4
20260508021511 65 65 1.0 8.0 0.00 0.02 0.02 66 1012.2
20260508021014 65 78 2.0 10.0 0.00 0.02 0.02 66 1012.4
20260508020510 65 338 3.0 10.0 0.00 0.02 0.02 66 1012.3
20260508020010 65 340 2.0 9.0 0.00 0.02 0.02 66 1012.3
20260508015510 65 38 3.0 9.0 0.00 0.02 0.02 66 1011.9
20260508015010 65 49 3.0 10.0 0.00 0.02 0.02 66 1011.9
20260508014510 65 31 4.0 10.0 0.00 0.02 0.02 66 1011.7
20260508014010 66 5 3.0 10.0 0.00 0.02 0.02 66 1011.8
20260508013512 66 325 3.0 9.0 0.00 0.02 0.02 66 1011.6
20260508013010 66 44 5.0 9.0 0.00 0.02 0.02 65 1011.2
20260508012513 66 66 4.0 9.0 0.00 0.02 0.02 65 1011.4
20260508012009 66 73 4.0 9.0 0.00 0.02 0.02 65 1011.2
20260508011508 66 62 4.0 16.0 0.00 0.02 0.02 65 1010.8
20260508011008 66 65 5.0 16.0 0.00 0.02 0.02 64 1010.4
20260508010508 66 123 6.0 13.0 0.00 0.02 0.02 64 1010.6
20260508010019 66 42 6.0 13.0 0.00 0.02 0.02 64 1010.5
20260508005508 66 96 6.0 15.0 0.00 0.02 0.02 64 1010.3
20260508005008 67 73 6.0 15.0 0.00 0.02 0.02 63 1010.2
20260508004517 67 75 5.0 13.0 0.00 0.02 0.02 63 1010.8
20260508004008 67 14 6.0 16.0 0.00 0.02 0.02 62 1010.4
20260508003506 67 95 6.0 17.0 0.00 0.02 0.02 62 1010.3
20260508003007 68 63 6.0 17.0 0.00 0.02 0.02 62 1010.6
20260508002504 68 30 6.0 15.0 0.00 0.02 0.02 63 1010.9
20260508002004 68 63 6.0 11.0 0.00 0.02 0.02 62 1011.1
20260508001505 68 71 6.0 11.0 0.00 0.02 0.02 61 1011.5
20260508001004 68 51 4.0 11.0 0.00 0.02 0.02 61 1011.8
20260508000502 68 51 4.0 11.0 0.00 0.02 0.02 61 1011.9
20260508000002 68 70 5.0 12.0 0.00 0.02 0.02 60 1012.1
20260507235502 68 35 4.0 12.0 0.00 0.02 0.02 60 1012.3
20260507235003 69 81 4.0 13.0 0.00 0.02 0.02 59 1012.5
20260507234502 69 59 5.0 13.0 0.00 0.02 0.02 59 1012.6
20260507234001 69 37 2.0 9.0 0.00 0.02 0.02 60 1012.8
20260507233501 69 34 2.0 8.0 0.00 0.02 0.02 60 1012.8
20260507233002 69 321 3.0 10.0 0.00 0.02 0.02 60 1012.6
20260507232501 69 360 2.0 11.0 0.00 0.02 0.02 60 1012.5
20260507232002 69 355 4.0 13.0 0.00 0.02 0.02 60 1012.7
20260507231500 69 49 5.0 13.0 0.00 0.02 0.02 59 1012.8
20260507231103 69 360 5.0 11.0 0.00 0.02 0.02 59 1012.7
20260507230602 69 355 4.0 12.0 0.00 0.02 0.02 60 1012.7
20260507230108 69 360 5.0 12.0 0.00 0.02 0.02 61 1012.3
20260507225559 69 13 3.0 9.0 0.00 0.02 0.02 62 1012.7
20260507225059 69 360 3.0 9.0 0.00 0.02 0.02 62 1012.9
20260507224601 69 44 4.0 10.0 0.00 0.02 0.02 61 1012.8
20260507224058 69 342 4.0 10.0 0.00 0.02 0.02 62 1012.9
20260507223601 69 348 2.0 9.0 0.00 0.02 0.02 62 1013.0
20260507223059 69 40 3.0 8.0 0.00 0.02 0.02 61 1013.0
20260507222559 69 67 3.0 8.0 0.00 0.02 0.02 61 1012.8
20260507222102 69 49 4.0 11.0 0.00 0.02 0.02 61 1013.1
20260507221558 69 30 4.0 11.0 0.00 0.02 0.02 61 1013.0
20260507221101 69 40 3.0 8.0 0.00 0.02 0.02 62 1012.8
20260507220557 68 42 3.0 12.0 0.00 0.02 0.02 62 1013.2
20260507220057 68 45 4.0 12.0 0.00 0.02 0.02 62 1013.1
20260507215557 68 12 4.0 14.0 0.00 0.02 0.02 63 1013.3
20260507215057 68 325 4.0 14.0 0.00 0.02 0.02 64 1013.3
20260507214556 68 349 4.0 14.0 0.00 0.02 0.02 63 1013.2
20260507214056 69 360 4.0 11.0 0.00 0.02 0.02 63 1013.2
20260507213556 69 11 4.0 10.0 0.00 0.02 0.02 63 1013.3
20260507213056 69 37 4.0 12.0 0.00 0.02 0.02 63 1013.3
20260507212556 69 350 5.0 12.0 0.00 0.02 0.02 63 1013.3
20260507212056 69 67 3.0 11.0 0.00 0.02 0.02 63 1013.3
20260507211556 70 68 6.0 11.0 0.00 0.02 0.02 63 1013.4
20260507211053 69 16 3.0 12.0 0.00 0.02 0.02 64 1013.2
20260507210552 69 320 4.0 12.0 0.00 0.02 0.02 66 1013.0
20260507210100 68 344 4.0 12.0 0.00 0.02 0.02 65 1013.0
20260507205552 69 55 4.0 12.0 0.00 0.02 0.02 65 1013.0
20260507205053 69 50 7.0 12.0 0.00 0.02 0.02 65 1013.1
20260507204551 69 336 4.0 13.0 0.00 0.02 0.02 66 1013.2
20260507204052 69 48 6.0 13.0 0.00 0.02 0.02 67 1013.2
20260507203550 69 320 5.0 11.0 0.00 0.02 0.02 68 1013.3
20260507203050 68 69 4.0 11.0 0.00 0.02 0.02 68 1013.1
20260507202548 68 52 5.0 12.0 0.00 0.02 0.02 69 1012.8
20260507202048 67 5 4.0 13.0 0.00 0.02 0.02 70 1013.0
20260507201546 67 51 5.0 11.0 0.00 0.02 0.02 71 1013.1
20260507201045 67 62 3.0 9.0 0.00 0.02 0.02 72 1013.1
20260507200544 66 37 3.0 12.0 0.00 0.02 0.02 73 1013.3
20260507200043 66 40 6.0 12.0 0.00 0.02 0.02 72 1013.3
20260507195543 66 32 4.0 12.0 0.00 0.02 0.02 72 1013.6
20260507195045 66 63 5.0 12.0 0.00 0.02 0.02 73 1013.6
20260507194541 66 355 6.0 12.0 0.00 0.02 0.02 74 1013.5
20260507194041 66 51 5.0 12.0 0.00 0.02 0.02 75 1013.6
20260507193543 65 44 5.0 14.0 0.00 0.02 0.02 76 1013.4
20260507193041 65 40 4.0 11.0 0.01 0.02 0.02 78 1013.2
20260507192538 65 11 5.0 12.0 0.01 0.02 0.02 78 1013.1
20260507192038 64 82 7.0 12.0 0.02 0.02 0.02 78 1013.0
20260507191539 64 81 5.0 12.0 0.02 0.02 0.02 79 1013.0
20260507191038 64 76 3.0 11.0 0.02 0.02 0.02 79 1013.2
20260507190538 64 99 5.0 12.0 0.02 0.02 0.02 79 1013.4
20260507190038 63 126 4.0 12.0 0.02 0.02 0.02 80 1013.8
20260507185537 63 50 5.0 9.0 0.02 0.02 0.02 79 1013.9
20260507185038 63 30 4.0 10.0 0.02 0.02 0.02 80 1013.9
20260507184538 63 28 4.0 10.0 0.02 0.02 0.02 80 1013.9
20260507184039 63 68 5.0 9.0 0.02 0.02 0.02 79 1014.0
20260507183539 63 36 4.0 9.0 0.02 0.02 0.02 78 1014.4
20260507183045 63 76 3.0 10.0 0.01 0.01 0.01 77 1014.4
20260507182536 64 355 5.0 10.0 0.00 0.00 0.00 76 1014.6
20260507182036 64 33 3.0 9.0 0.00 0.00 0.00 74 1014.9
20260507181541 64 26 2.0 10.0 0.00 0.00 0.00 73 1015.2
20260507181036 64 5 4.0 11.0 0.00 0.00 0.00 72 1015.0
20260507180535 65 44 5.0 11.0 0.00 0.00 0.00 72 1015.1
20260507180045 65 320 4.0 12.0 0.00 0.00 0.00 72 1015.1
20260507175535 65 311 6.0 12.0 0.00 0.00 0.00 72 1014.7
20260507175035 64 19 6.0 13.0 0.00 0.00 0.00 73 1014.6
20260507174535 64 36 6.0 14.0 0.00 0.00 0.00 72 1014.7
20260507174036 65 17 7.0 14.0 0.00 0.00 0.00 72 1014.8
20260507173534 64 5 4.0 14.0 0.00 0.00 0.00 73 1014.8
20260507173037 64 38 8.0 14.0 0.00 0.00 0.00 72 1014.9
20260507172538 64 346 3.0 14.0 0.00 0.00 0.00 73 1015.0
20260507172035 64 44 5.0 14.0 0.00 0.00 0.00 73 1015.0
20260507171533 64 333 6.0 14.0 0.00 0.00 0.00 73 1014.9
20260507171033 63 40 7.0 15.0 0.00 0.00 0.00 74 1015.1
20260507170532 63 67 6.0 15.0 0.00 0.00 0.00 74 1015.1
20260507170031 63 67 5.0 11.0 0.00 0.00 0.00 74 1015.2
20260507165530 63 360 5.0 11.0 0.00 0.00 0.00 74 1015.3
20260507165030 63 340 4.0 12.0 0.00 0.00 0.00 75 1015.3
20260507164536 63 16 6.0 14.0 0.00 0.00 0.00 75 1015.4
20260507164029 63 5 6.0 14.0 0.00 0.00 0.00 75 1015.2
20260507163528 63 40 5.0 13.0 0.00 0.00 0.00 75 1015.2
20260507163032 63 76 4.0 13.0 0.00 0.00 0.00 75 1015.1
20260507162528 63 326 6.0 13.0 0.00 0.00 0.00 75 1015.1
20260507162028 63 355 4.0 12.0 0.00 0.00 0.00 76 1015.1
20260507161539 62 30 4.0 10.0 0.00 0.00 0.00 75 1015.1
20260507161027 62 16 4.0 15.0 0.00 0.00 0.00 76 1015.2
20260507160527 62 42 6.0 17.0 0.00 0.00 0.00 75 1015.1
20260507160041 62 338 8.0 17.0 0.00 0.00 0.00 75 1015.0
20260507155527 62 355 5.0 14.0 0.00 0.00 0.00 75 1015.0
20260507155026 62 55 6.0 17.0 0.00 0.00 0.00 75 1015.0
20260507154529 62 330 7.0 17.0 0.00 0.00 0.00 75 1015.1
20260507154025 62 10 4.0 15.0 0.00 0.00 0.00 76 1014.9
20260507153525 62 5 7.0 16.0 0.00 0.00 0.00 76 1014.7
20260507153024 62 327 7.0 18.0 0.00 0.00 0.00 76 1014.8
20260507152524 62 329 7.0 18.0 0.00 0.00 0.00 75 1014.9
20260507152024 62 346 8.0 15.0 0.00 0.00 0.00 75 1014.8
20260507151524 62 342 7.0 14.0 0.00 0.00 0.00 75 1014.7
20260507151025 62 38 8.0 17.0 0.00 0.00 0.00 75 1014.7
20260507150524 63 9 6.0 14.0 0.00 0.00 0.00 75 1014.7
20260507150028 63 335 5.0 17.0 0.00 0.00 0.00 75 1014.5
20260507145524 62 355 6.0 17.0 0.00 0.00 0.00 76 1014.5
20260507145025 62 346 9.0 17.0 0.00 0.00 0.00 76 1014.4
20260507144529 62 19 5.0 14.0 0.00 0.00 0.00 78 1014.2
20260507144021 61 342 5.0 14.0 0.00 0.00 0.00 78 1014.2
20260507143519 61 96 6.0 14.0 0.00 0.00 0.00 78 1014.5
20260507143019 61 338 4.0 14.0 0.00 0.00 0.00 78 1014.5
20260507142519 61 340 7.0 16.0 0.00 0.00 0.00 78 1014.6
20260507142018 61 315 7.0 16.0 0.00 0.00 0.00 78 1014.6
20260507141520 61 315 3.0 18.0 0.00 0.00 0.00 79 1014.6
20260507141020 61 327 5.0 21.0 0.00 0.00 0.00 79 1014.5
20260507140520 61 331 7.0 21.0 0.00 0.00 0.00 79 1014.3
20260507140015 60 42 7.0 18.0 0.00 0.00 0.00 80 1014.1
20260507135517 60 360 5.0 14.0 0.00 0.00 0.00 80 1014.2
20260507135014 60 333 6.0 15.0 0.00 0.00 0.00 80 1014.4
20260507134511 60 360 5.0 16.0 0.00 0.00 0.00 80 1014.6
20260507134011 60 38 5.0 16.0 0.00 0.00 0.00 80 1014.7
20260507133510 60 342 8.0 16.0 0.00 0.00 0.00 80 1014.5
20260507133010 60 340 7.0 16.0 0.00 0.00 0.00 80 1014.5
20260507132509 60 340 6.0 16.0 0.00 0.00 0.00 80 1014.5
20260507132008 60 15 4.0 13.0 0.00 0.00 0.00 80 1014.2
20260507131508 60 40 6.0 13.0 0.00 0.00 0.00 80 1014.1
20260507131007 60 37 5.0 15.0 0.00 0.00 0.00 80 1013.9